Location: Borovka
(49.7741°N, 14.5280°E)
Time: 06:26:27
(UTC+00:00)

IRS-1C - Pass Details

Date: 17 November 2025
Orbit: 813 x 814 km, 99.0° (Epoch: 10 December)

Event Time Altitude Azimuth Distance (km) Brightness Sun altitude
Rises 15:56:37 0° 149° (SSE) 3,328 7.2 -6.8°
Reaches altitude 10° 15:58:59 10° 145° (SE) 2,400 6.4 -7.1°
Maximum altitude 16:04:10 56° 68° (ENE) 968 4.2 -7.9°
Drops below altitude 10° 16:09:22 10° 352° (N) 2,415 6.5 -8.7°
Sets 16:11:45 0° 348° (NNW) 3,351 7.2 -9.0°
